Year,Month,Day,Hour,Minute,Value (Times are PST for windgust in km/hr)
2019,06,18,00,00,25.70
2019,06,18,00,01,25.70
2019,06,18,00,02,20.90
2019,06,18,00,03,30.60
2019,06,18,00,04,35.40
2019,06,18,00,05,29.00
2019,06,18,00,06,19.30
2019,06,18,00,07,25.70
2019,06,18,00,08,19.30
2019,06,18,00,09,22.50
2019,06,18,00,10,37.00
2019,06,18,00,11,27.40
2019,06,18,00,12,37.00
2019,06,18,00,13,30.60
2019,06,18,00,14,29.00
2019,06,18,00,15,30.60
2019,06,18,00,16,29.00
2019,06,18,00,17,30.60
2019,06,18,00,18,37.00
2019,06,18,00,19,16.10
2019,06,18,00,20,32.20
2019,06,18,00,21,25.70
2019,06,18,00,22,33.80
2019,06,18,00,23,27.40
2019,06,18,00,24,41.80
2019,06,18,00,25,30.60
2019,06,18,00,26,33.80
2019,06,18,00,27,40.20
2019,06,18,00,28,32.20
2019,06,18,00,29,25.70
2019,06,18,00,30,32.20
2019,06,18,00,31,32.20
2019,06,18,00,32,35.40
2019,06,18,00,33,37.00
2019,06,18,00,34,24.20
2019,06,18,00,35,25.70
2019,06,18,00,36,30.60
2019,06,18,00,37,30.60
2019,06,18,00,38,27.40
2019,06,18,00,39,37.00
2019,06,18,00,40,19.30
2019,06,18,00,41,29.00
2019,06,18,00,42,33.80
2019,06,18,00,43,41.80
2019,06,18,00,44,24.20
2019,06,18,00,45,25.70
2019,06,18,00,46,33.80
2019,06,18,00,47,37.00
2019,06,18,00,48,27.40
2019,06,18,00,49,29.00
2019,06,18,00,50,22.50
2019,06,18,00,51,29.00
2019,06,18,00,52,25.70
2019,06,18,00,53,30.60
2019,06,18,00,54,20.90
2019,06,18,00,55,22.50
2019,06,18,00,56,25.70
2019,06,18,00,57,27.40
2019,06,18,00,58,35.40
2019,06,18,00,59,22.50
2019,06,18,01,00,27.40
2019,06,18,01,01,22.50
2019,06,18,01,02,16.10
2019,06,18,01,03,29.00
2019,06,18,01,04,25.70
2019,06,18,01,05,24.20
2019,06,18,01,06,19.30
2019,06,18,01,07,17.70
2019,06,18,01,08,33.80
2019,06,18,01,09,25.70
2019,06,18,01,10,19.30
2019,06,18,01,11,25.70
2019,06,18,01,12,27.40
2019,06,18,01,13,24.20
2019,06,18,01,14,22.50
2019,06,18,01,15,20.90
2019,06,18,01,16,30.60
2019,06,18,01,17,27.40
2019,06,18,01,18,27.40
2019,06,18,01,19,35.40
2019,06,18,01,20,32.20
2019,06,18,01,21,27.40
2019,06,18,01,22,29.00
2019,06,18,01,23,30.60
2019,06,18,01,24,33.80
2019,06,18,01,25,27.40
2019,06,18,01,26,25.70
2019,06,18,01,27,22.50
2019,06,18,01,28,16.10
2019,06,18,01,29,30.60
2019,06,18,01,30,27.40
2019,06,18,01,31,33.80
2019,06,18,01,32,19.30
2019,06,18,01,33,25.70
2019,06,18,01,34,27.40
2019,06,18,01,35,19.30
2019,06,18,01,36,27.40
2019,06,18,01,37,20.90
2019,06,18,01,38,25.70
2019,06,18,01,39,25.70
2019,06,18,01,40,24.20
2019,06,18,01,41,25.70
2019,06,18,01,42,19.30
2019,06,18,01,43,30.60
2019,06,18,01,44,25.70
2019,06,18,01,45,30.60
2019,06,18,01,46,29.00
2019,06,18,01,47,30.60
2019,06,18,01,48,20.90
2019,06,18,01,49,25.70
2019,06,18,01,50,27.40
2019,06,18,01,51,19.30
2019,06,18,01,52,32.20
2019,06,18,01,53,25.70
2019,06,18,01,54,29.00
2019,06,18,01,55,19.30
2019,06,18,01,56,24.20
2019,06,18,01,57,25.70
2019,06,18,01,58,27.40
2019,06,18,01,59,22.50
2019,06,18,02,00,20.90
2019,06,18,02,01,30.60
2019,06,18,02,02,29.00
2019,06,18,02,03,29.00
2019,06,18,02,04,27.40
2019,06,18,02,05,29.00
2019,06,18,02,06,20.90
2019,06,18,02,07,22.50
2019,06,18,02,08,22.50
2019,06,18,02,09,24.20
2019,06,18,02,10,38.60
2019,06,18,02,11,22.50
2019,06,18,02,12,17.70
2019,06,18,02,13,25.70
2019,06,18,02,14,32.20
2019,06,18,02,15,29.00
2019,06,18,02,16,16.10
2019,06,18,02,17,22.50
2019,06,18,02,18,20.90
2019,06,18,02,19,17.70
2019,06,18,02,20,14.50
2019,06,18,02,21,22.50
2019,06,18,02,22,17.70
2019,06,18,02,23,25.70
2019,06,18,02,24,29.00
2019,06,18,02,25,24.20
2019,06,18,02,26,20.90
2019,06,18,02,27,16.10
2019,06,18,02,28,22.50
2019,06,18,02,29,19.30
2019,06,18,02,30,16.10
2019,06,18,02,31,24.20
2019,06,18,02,32,17.70
2019,06,18,02,33,22.50
2019,06,18,02,34,27.40
2019,06,18,02,35,19.30
2019,06,18,02,36,20.90
2019,06,18,02,37,25.70
2019,06,18,02,38,25.70
2019,06,18,02,39,22.50
2019,06,18,02,40,24.20
2019,06,18,02,41,27.40
2019,06,18,02,42,25.70
2019,06,18,02,43,25.70
2019,06,18,02,44,29.00
2019,06,18,02,45,20.90
2019,06,18,02,46,24.20
2019,06,18,02,47,19.30
2019,06,18,02,48,29.00
2019,06,18,02,49,20.90
2019,06,18,02,50,35.40
2019,06,18,02,51,25.70
2019,06,18,02,52,27.40
2019,06,18,02,53,32.20
2019,06,18,02,54,29.00
2019,06,18,02,55,19.30
2019,06,18,02,56,20.90
2019,06,18,02,57,22.50
2019,06,18,02,58,17.70
2019,06,18,02,59,16.10
2019,06,18,03,00,17.70
2019,06,18,03,01,17.70
2019,06,18,03,02,25.70
2019,06,18,03,03,17.70
2019,06,18,03,04,16.10
2019,06,18,03,05,25.70
2019,06,18,03,06,24.20
2019,06,18,03,07,20.90
2019,06,18,03,08,19.30
2019,06,18,03,09,16.10
2019,06,18,03,10,16.10
2019,06,18,03,11,22.50
2019,06,18,03,12,24.20
2019,06,18,03,13,22.50
2019,06,18,03,14,19.30
2019,06,18,03,15,22.50
2019,06,18,03,16,16.10
2019,06,18,03,17,14.50
2019,06,18,03,18,22.50
2019,06,18,03,19,22.50
2019,06,18,03,20,20.90
2019,06,18,03,21,22.50
2019,06,18,03,22,25.70
2019,06,18,03,23,27.40
2019,06,18,03,24,22.50
2019,06,18,03,25,27.40
2019,06,18,03,26,19.30
2019,06,18,03,27,22.50
2019,06,18,03,28,22.50
2019,06,18,03,29,20.90
2019,06,18,03,30,22.50
2019,06,18,03,31,22.50
2019,06,18,03,32,20.90
2019,06,18,03,33,22.50
2019,06,18,03,34,16.10
2019,06,18,03,35,17.70
2019,06,18,03,36,22.50
2019,06,18,03,37,17.70
2019,06,18,03,38,27.40
2019,06,18,03,39,25.70
2019,06,18,03,40,19.30
2019,06,18,03,41,29.00
2019,06,18,03,42,17.70
2019,06,18,03,43,19.30
2019,06,18,03,44,22.50
2019,06,18,03,45,16.10
2019,06,18,03,46,24.20
2019,06,18,03,47,17.70
2019,06,18,03,48,24.20
2019,06,18,03,49,22.50
2019,06,18,03,50,17.70
2019,06,18,03,51,14.50
2019,06,18,03,52,16.10
2019,06,18,03,53,20.90
2019,06,18,03,54,22.50
2019,06,18,03,55,25.70
2019,06,18,03,56,24.20
2019,06,18,03,57,27.40
2019,06,18,03,58,17.70
2019,06,18,03,59,17.70
2019,06,18,04,00,22.50
2019,06,18,04,01,19.30
2019,06,18,04,02,20.90
2019,06,18,04,03,16.10
2019,06,18,04,04,25.70
2019,06,18,04,05,20.90
2019,06,18,04,06,24.20
2019,06,18,04,07,19.30
2019,06,18,04,08,22.50
2019,06,18,04,09,20.90
2019,06,18,04,10,19.30
2019,06,18,04,11,30.60
2019,06,18,04,12,20.90
2019,06,18,04,13,19.30
2019,06,18,04,14,17.70
2019,06,18,04,15,19.30
2019,06,18,04,16,17.70
2019,06,18,04,17,17.70
2019,06,18,04,18,29.00
2019,06,18,04,19,20.90
2019,06,18,04,20,17.70
2019,06,18,04,21,19.30
2019,06,18,04,22,16.10
2019,06,18,04,23,17.70
2019,06,18,04,24,12.90
2019,06,18,04,25,16.10
2019,06,18,04,26,17.70
2019,06,18,04,27,22.50
2019,06,18,04,28,16.10
2019,06,18,04,29,20.90
2019,06,18,04,30,17.70
2019,06,18,04,31,16.10
2019,06,18,04,32,12.90
2019,06,18,04,33,16.10
2019,06,18,04,34,25.70
2019,06,18,04,35,12.90
2019,06,18,04,36,27.40
2019,06,18,04,37,17.70
2019,06,18,04,38,22.50
2019,06,18,04,39,16.10
2019,06,18,04,40,16.10
2019,06,18,04,41,17.70
2019,06,18,04,42,19.30
2019,06,18,04,43,20.90
2019,06,18,04,44,22.50
2019,06,18,04,45,19.30
2019,06,18,04,46,24.20
2019,06,18,04,47,12.90
2019,06,18,04,48,11.30
2019,06,18,04,49,16.10
2019,06,18,04,50,17.70
2019,06,18,04,51,19.30
2019,06,18,04,52,17.70
2019,06,18,04,53,20.90
2019,06,18,04,54,17.70
2019,06,18,04,55,24.20
2019,06,18,04,56,12.90
2019,06,18,04,57,11.30
2019,06,18,04,58,12.90
2019,06,18,04,59,22.50
2019,06,18,05,00,25.70
2019,06,18,05,01,16.10
2019,06,18,05,02,19.30
2019,06,18,05,03,16.10
2019,06,18,05,04,11.30
2019,06,18,05,05,16.10
2019,06,18,05,06,16.10
2019,06,18,05,07,9.60
2019,06,18,05,08,14.50
2019,06,18,05,09,22.50
2019,06,18,05,10,22.50
2019,06,18,05,11,16.10
2019,06,18,05,12,19.30
2019,06,18,05,13,20.90
2019,06,18,05,14,17.70
2019,06,18,05,15,19.30
2019,06,18,05,16,16.10
2019,06,18,05,17,19.30
2019,06,18,05,18,22.50
2019,06,18,05,19,19.30
2019,06,18,05,20,17.70
2019,06,18,05,21,20.90
2019,06,18,05,22,11.30
2019,06,18,05,23,20.90
2019,06,18,05,24,17.70
2019,06,18,05,25,11.30
2019,06,18,05,26,11.30
2019,06,18,05,27,14.50
2019,06,18,05,28,22.50
2019,06,18,05,29,16.10
2019,06,18,05,30,17.70
2019,06,18,05,31,19.30
2019,06,18,05,32,22.50
2019,06,18,05,33,17.70
2019,06,18,05,34,22.50
2019,06,18,05,35,12.90
2019,06,18,05,36,16.10
2019,06,18,05,37,16.10
2019,06,18,05,38,17.70
2019,06,18,05,39,20.90
2019,06,18,05,40,17.70
2019,06,18,05,41,17.70
2019,06,18,05,42,25.70
2019,06,18,05,43,20.90
2019,06,18,05,44,14.50
2019,06,18,05,45,19.30
2019,06,18,05,46,19.30
2019,06,18,05,47,17.70
2019,06,18,05,48,20.90
2019,06,18,05,49,17.70
2019,06,18,05,50,17.70
2019,06,18,05,51,29.00
2019,06,18,05,52,20.90
2019,06,18,05,53,27.40
2019,06,18,05,54,22.50
2019,06,18,05,55,19.30
2019,06,18,05,56,24.20
2019,06,18,05,57,22.50
2019,06,18,05,58,14.50
2019,06,18,05,59,14.50
2019,06,18,06,00,12.90
2019,06,18,06,01,16.10
2019,06,18,06,02,17.70
2019,06,18,06,03,19.30
2019,06,18,06,04,17.70
2019,06,18,06,05,17.70
2019,06,18,06,06,22.50
2019,06,18,06,07,20.90
2019,06,18,06,08,20.90
2019,06,18,06,09,19.30
2019,06,18,06,10,9.60
2019,06,18,06,11,8.10
2019,06,18,06,12,11.30
2019,06,18,06,13,17.70
2019,06,18,06,14,17.70
2019,06,18,06,15,11.30
2019,06,18,06,16,16.10
2019,06,18,06,17,16.10
2019,06,18,06,18,9.60
2019,06,18,06,19,16.10
2019,06,18,06,20,11.30
2019,06,18,06,21,9.60
2019,06,18,06,22,9.60
2019,06,18,06,23,9.60
2019,06,18,06,24,9.60
2019,06,18,06,25,9.60
2019,06,18,06,26,12.90
2019,06,18,06,27,19.30
2019,06,18,06,28,17.70
2019,06,18,06,29,14.50
2019,06,18,06,30,9.60
2019,06,18,06,31,12.90
2019,06,18,06,32,17.70
2019,06,18,06,33,17.70
2019,06,18,06,34,17.70
2019,06,18,06,35,22.50
2019,06,18,06,36,17.70
2019,06,18,06,37,9.60
2019,06,18,06,38,11.30
2019,06,18,06,39,12.90
2019,06,18,06,40,17.70
2019,06,18,06,41,14.50
2019,06,18,06,42,16.10
2019,06,18,06,43,9.60
2019,06,18,06,44,16.10
2019,06,18,06,45,12.90
2019,06,18,06,46,11.30
2019,06,18,06,47,16.10
2019,06,18,06,48,8.10
2019,06,18,06,49,16.10
2019,06,18,06,50,17.70
2019,06,18,06,51,17.70
2019,06,18,06,52,17.70
2019,06,18,06,53,12.90
2019,06,18,06,54,19.30
2019,06,18,06,55,20.90
2019,06,18,06,56,14.50
2019,06,18,06,57,16.10
2019,06,18,06,58,17.70
2019,06,18,06,59,20.90
2019,06,18,07,00,19.30
2019,06,18,07,01,19.30
2019,06,18,07,02,16.10
2019,06,18,07,03,11.30
2019,06,18,07,04,9.60
2019,06,18,07,05,9.60
2019,06,18,07,06,11.30
2019,06,18,07,07,11.30
2019,06,18,07,08,9.60
2019,06,18,07,09,11.30
2019,06,18,07,10,14.50
2019,06,18,07,11,24.20
2019,06,18,07,12,20.90
2019,06,18,07,13,12.90
2019,06,18,07,14,11.30
2019,06,18,07,15,9.60
2019,06,18,07,16,12.90
2019,06,18,07,17,17.70
2019,06,18,07,18,16.10
2019,06,18,07,19,19.30
2019,06,18,07,20,16.10
2019,06,18,07,21,12.90
2019,06,18,07,22,17.70
2019,06,18,07,23,16.10
2019,06,18,07,24,16.10
2019,06,18,07,25,11.30
2019,06,18,07,26,12.90
2019,06,18,07,27,8.10
2019,06,18,07,28,9.60
2019,06,18,07,29,12.90
2019,06,18,07,30,16.10
2019,06,18,07,31,16.10
2019,06,18,07,32,11.30
2019,06,18,07,33,19.30
2019,06,18,07,34,11.30
2019,06,18,07,35,11.30
2019,06,18,07,36,16.10
2019,06,18,07,37,14.50
2019,06,18,07,38,11.30
2019,06,18,07,39,9.60
2019,06,18,07,40,17.70
2019,06,18,07,41,11.30
2019,06,18,07,42,14.50
2019,06,18,07,43,25.70
2019,06,18,07,44,22.50
2019,06,18,07,45,22.50
2019,06,18,07,46,11.30
2019,06,18,07,47,12.90
2019,06,18,07,48,14.50
2019,06,18,07,49,17.70
2019,06,18,07,50,20.90
2019,06,18,07,51,17.70
2019,06,18,07,52,20.90
2019,06,18,07,53,17.70
2019,06,18,07,54,20.90
2019,06,18,07,55,24.20
2019,06,18,07,56,17.70
2019,06,18,07,57,19.30
2019,06,18,07,58,14.50
2019,06,18,07,59,14.50
2019,06,18,08,00,20.90
2019,06,18,08,01,16.10
2019,06,18,08,02,17.70
2019,06,18,08,03,17.70
2019,06,18,08,04,16.10
2019,06,18,08,05,12.90
2019,06,18,08,06,16.10
2019,06,18,08,07,11.30
2019,06,18,08,08,14.50
2019,06,18,08,09,16.10
2019,06,18,08,10,17.70
2019,06,18,08,11,22.50
2019,06,18,08,12,25.70
2019,06,18,08,13,16.10
2019,06,18,08,14,20.90
2019,06,18,08,15,16.10
2019,06,18,08,16,20.90
2019,06,18,08,17,17.70
2019,06,18,08,18,11.30
2019,06,18,08,19,20.90
2019,06,18,08,20,16.10
2019,06,18,08,21,12.90
2019,06,18,08,22,19.30
2019,06,18,08,23,12.90
2019,06,18,08,24,11.30
2019,06,18,08,25,9.60
2019,06,18,08,26,14.50
2019,06,18,08,27,19.30
2019,06,18,08,28,17.70
2019,06,18,08,29,17.70
2019,06,18,08,30,16.10
2019,06,18,08,31,19.30
2019,06,18,08,32,22.50
2019,06,18,08,33,12.90
2019,06,18,08,34,20.90
2019,06,18,08,35,19.30
2019,06,18,08,36,16.10
2019,06,18,08,37,22.50
2019,06,18,08,38,22.50
2019,06,18,08,39,19.30
2019,06,18,08,40,17.70
2019,06,18,08,41,20.90
2019,06,18,08,42,20.90
2019,06,18,08,43,19.30
2019,06,18,08,44,12.90
2019,06,18,08,45,16.10
2019,06,18,08,46,12.90
2019,06,18,08,47,16.10
2019,06,18,08,48,24.20
2019,06,18,08,49,22.50
2019,06,18,08,50,22.50
2019,06,18,08,51,22.50
2019,06,18,08,52,22.50
2019,06,18,08,53,30.60
2019,06,18,08,54,20.90
2019,06,18,08,55,25.70
2019,06,18,08,56,20.90
2019,06,18,08,57,16.10
2019,06,18,08,58,17.70
2019,06,18,08,59,16.10
2019,06,18,09,00,16.10
2019,06,18,09,01,16.10
2019,06,18,09,02,22.50
2019,06,18,09,03,14.50
2019,06,18,09,04,22.50
2019,06,18,09,05,12.90
2019,06,18,09,06,12.90
2019,06,18,09,07,16.10
2019,06,18,09,08,20.90
2019,06,18,09,09,17.70
2019,06,18,09,10,22.50
2019,06,18,09,11,20.90
2019,06,18,09,12,20.90
2019,06,18,09,13,24.20
2019,06,18,09,14,22.50
2019,06,18,09,15,12.90
2019,06,18,09,16,16.10
2019,06,18,09,17,14.50
2019,06,18,09,18,8.10
2019,06,18,09,19,20.90
2019,06,18,09,20,16.10
2019,06,18,09,21,17.70
2019,06,18,09,22,12.90
2019,06,18,09,23,14.50
2019,06,18,09,24,11.30
2019,06,18,09,25,16.10
2019,06,18,09,26,12.90
2019,06,18,09,27,16.10
2019,06,18,09,28,17.70
2019,06,18,09,29,14.50
2019,06,18,09,30,24.20
2019,06,18,09,31,16.10
2019,06,18,09,32,14.50
2019,06,18,09,33,22.50
2019,06,18,09,34,17.70
2019,06,18,09,35,16.10
2019,06,18,09,36,17.70
2019,06,18,09,37,19.30
2019,06,18,09,38,12.90
2019,06,18,09,39,22.50
2019,06,18,09,40,12.90
2019,06,18,09,41,19.30
2019,06,18,09,42,19.30
2019,06,18,09,43,20.90
2019,06,18,09,44,20.90
2019,06,18,09,45,14.50
2019,06,18,09,46,16.10
2019,06,18,09,47,14.50
2019,06,18,09,48,19.30
2019,06,18,09,49,16.10
2019,06,18,09,50,14.50
2019,06,18,09,51,6.40
2019,06,18,09,52,8.10
2019,06,18,09,53,12.90
2019,06,18,09,54,17.70
2019,06,18,09,55,20.90
2019,06,18,09,56,24.20
2019,06,18,09,57,22.50
2019,06,18,09,58,17.70
2019,06,18,09,59,9.60
2019,06,18,10,00,17.70
2019,06,18,10,01,20.90
2019,06,18,10,02,24.20
2019,06,18,10,03,25.70
2019,06,18,10,04,17.70
2019,06,18,10,05,17.70
2019,06,18,10,06,25.70
2019,06,18,10,07,19.30
2019,06,18,10,08,16.10
2019,06,18,10,09,24.20
2019,06,18,10,10,14.50
2019,06,18,10,11,17.70
2019,06,18,10,12,19.30
2019,06,18,10,13,17.70
2019,06,18,10,14,16.10
2019,06,18,10,15,17.70
2019,06,18,10,16,14.50
2019,06,18,10,17,14.50
2019,06,18,10,18,19.30
2019,06,18,10,19,22.50
2019,06,18,10,20,20.90
2019,06,18,10,21,11.30
2019,06,18,10,22,19.30
2019,06,18,10,23,20.90
2019,06,18,10,24,19.30
2019,06,18,10,25,17.70
2019,06,18,10,26,16.10
2019,06,18,10,27,25.70
2019,06,18,10,28,24.20
2019,06,18,10,29,25.70
2019,06,18,10,30,24.20
2019,06,18,10,31,24.20
2019,06,18,10,32,25.70
2019,06,18,10,33,19.30
2019,06,18,10,34,19.30
2019,06,18,10,35,16.10
2019,06,18,10,36,17.70
2019,06,18,10,37,20.90
2019,06,18,10,38,11.30
2019,06,18,10,39,17.70
2019,06,18,10,40,16.10
2019,06,18,10,41,19.30
2019,06,18,10,42,17.70
2019,06,18,10,43,19.30
2019,06,18,10,44,22.50
2019,06,18,10,45,20.90
2019,06,18,10,46,12.90
2019,06,18,10,47,11.30
2019,06,18,10,48,8.10
2019,06,18,10,49,20.90
2019,06,18,10,50,24.20
2019,06,18,10,51,16.10
2019,06,18,10,52,17.70
2019,06,18,10,53,22.50
2019,06,18,10,54,16.10
2019,06,18,10,55,19.30
2019,06,18,10,56,20.90
2019,06,18,10,57,14.50
2019,06,18,10,58,22.50
2019,06,18,10,59,22.50
2019,06,18,11,00,22.50
2019,06,18,11,01,25.70
2019,06,18,11,02,24.20
2019,06,18,11,03,27.40
2019,06,18,11,04,22.50
2019,06,18,11,05,17.70
2019,06,18,11,06,16.10
2019,06,18,11,07,29.00
2019,06,18,11,08,22.50
2019,06,18,11,09,19.30
2019,06,18,11,10,22.50
2019,06,18,11,11,20.90
2019,06,18,11,12,19.30
2019,06,18,11,13,17.70
2019,06,18,11,14,24.20
2019,06,18,11,15,20.90
2019,06,18,11,16,17.70
2019,06,18,11,17,17.70
2019,06,18,11,18,29.00
2019,06,18,11,19,24.20
2019,06,18,11,20,30.60
2019,06,18,11,21,24.20
2019,06,18,11,22,19.30
2019,06,18,11,23,22.50
2019,06,18,11,24,22.50
2019,06,18,11,25,25.70
2019,06,18,11,26,19.30
2019,06,18,11,27,22.50
2019,06,18,11,28,29.00
2019,06,18,11,29,20.90
2019,06,18,11,30,32.20
2019,06,18,11,31,19.30
2019,06,18,11,32,24.20
2019,06,18,11,33,16.10
2019,06,18,11,34,22.50
2019,06,18,11,35,32.20
2019,06,18,11,36,33.80
2019,06,18,11,37,27.40
2019,06,18,11,38,20.90
2019,06,18,11,39,30.60
2019,06,18,11,40,35.40
2019,06,18,11,41,27.40
2019,06,18,11,42,27.40
2019,06,18,11,43,32.20
2019,06,18,11,44,33.80
2019,06,18,11,45,30.60
2019,06,18,11,46,30.60
2019,06,18,11,47,22.50
2019,06,18,11,48,20.90
2019,06,18,11,49,29.00
2019,06,18,11,50,27.40
2019,06,18,11,51,29.00
2019,06,18,11,52,32.20
2019,06,18,11,53,30.60
2019,06,18,11,54,25.70
2019,06,18,11,55,27.40
2019,06,18,11,56,38.60
2019,06,18,11,57,29.00
2019,06,18,11,58,29.00
2019,06,18,11,59,33.80
2019,06,18,12,00,29.00
2019,06,18,12,01,19.30
2019,06,18,12,02,22.50
2019,06,18,12,03,20.90
2019,06,18,12,04,30.60
2019,06,18,12,05,19.30
2019,06,18,12,06,16.10
2019,06,18,12,07,20.90
2019,06,18,12,08,20.90
2019,06,18,12,09,27.40
2019,06,18,12,10,22.50
2019,06,18,12,11,24.20
2019,06,18,12,12,32.20
2019,06,18,12,13,20.90
2019,06,18,12,14,22.50
2019,06,18,12,15,20.90
2019,06,18,12,16,25.70
2019,06,18,12,17,37.00
2019,06,18,12,18,32.20
2019,06,18,12,19,25.70
2019,06,18,12,20,29.00
2019,06,18,12,21,20.90
2019,06,18,12,22,29.00
2019,06,18,12,23,22.50
2019,06,18,12,24,29.00
2019,06,18,12,25,29.00
2019,06,18,12,26,19.30
2019,06,18,12,27,35.40
2019,06,18,12,28,35.40
2019,06,18,12,29,40.20
2019,06,18,12,30,25.70
2019,06,18,12,31,35.40
2019,06,18,12,32,32.20
2019,06,18,12,33,35.40
2019,06,18,12,34,33.80
2019,06,18,12,35,30.60
2019,06,18,12,36,35.40
2019,06,18,12,37,29.00
2019,06,18,12,38,32.20
2019,06,18,12,39,20.90
2019,06,18,12,40,29.00
2019,06,18,12,41,20.90
2019,06,18,12,42,20.90
2019,06,18,12,43,22.50
2019,06,18,12,44,33.80
2019,06,18,12,45,24.20
2019,06,18,12,46,32.20
2019,06,18,12,47,25.70
2019,06,18,12,48,22.50
2019,06,18,12,49,25.70
2019,06,18,12,50,29.00
2019,06,18,12,51,32.20
2019,06,18,12,52,32.20
2019,06,18,12,53,16.10
2019,06,18,12,54,27.40
2019,06,18,12,55,29.00
2019,06,18,12,56,20.90
2019,06,18,12,57,24.20
2019,06,18,12,58,14.50
2019,06,18,12,59,20.90
2019,06,18,13,00,22.50
2019,06,18,13,01,16.10
2019,06,18,13,02,29.00
2019,06,18,13,03,25.70
2019,06,18,13,04,25.70
2019,06,18,13,05,22.50
2019,06,18,13,06,22.50
2019,06,18,13,07,37.00
2019,06,18,13,08,32.20
2019,06,18,13,09,32.20
2019,06,18,13,10,29.00
2019,06,18,13,11,27.40
2019,06,18,13,12,30.60
2019,06,18,13,13,27.40
2019,06,18,13,14,24.20
2019,06,18,13,15,29.00
2019,06,18,13,16,24.20
2019,06,18,13,17,32.20
2019,06,18,13,18,25.70
2019,06,18,13,19,22.50
2019,06,18,13,20,22.50
2019,06,18,13,21,24.20
2019,06,18,13,22,33.80
2019,06,18,13,23,33.80
2019,06,18,13,24,33.80
2019,06,18,13,25,33.80
2019,06,18,13,26,32.20
2019,06,18,13,27,38.60
2019,06,18,13,28,30.60
2019,06,18,13,29,25.70
2019,06,18,13,30,29.00
2019,06,18,13,31,25.70
2019,06,18,13,32,27.40
2019,06,18,13,33,29.00
2019,06,18,13,34,17.70
2019,06,18,13,35,25.70
2019,06,18,13,36,25.70
2019,06,18,13,37,27.40
2019,06,18,13,38,14.50
2019,06,18,13,39,24.20
2019,06,18,13,40,25.70
2019,06,18,13,41,27.40
2019,06,18,13,42,32.20
2019,06,18,13,43,35.40
2019,06,18,13,44,29.00
2019,06,18,13,45,27.40
2019,06,18,13,46,25.70
2019,06,18,13,47,30.60
2019,06,18,13,48,35.40
2019,06,18,13,49,16.10
2019,06,18,13,50,22.50
2019,06,18,13,51,32.20
2019,06,18,13,52,29.00
2019,06,18,13,53,27.40
2019,06,18,13,54,29.00
2019,06,18,13,55,19.30
2019,06,18,13,56,19.30
2019,06,18,13,57,35.40
2019,06,18,13,58,20.90
2019,06,18,13,59,27.40
2019,06,18,14,00,27.40
2019,06,18,14,01,32.20
2019,06,18,14,02,37.00
2019,06,18,14,03,29.00
2019,06,18,14,04,22.50
2019,06,18,14,05,22.50
2019,06,18,14,06,22.50
2019,06,18,14,07,25.70
2019,06,18,14,08,32.20
2019,06,18,14,09,25.70
2019,06,18,14,10,30.60
2019,06,18,14,11,29.00
2019,06,18,14,12,19.30
2019,06,18,14,13,33.80
2019,06,18,14,14,29.00
2019,06,18,14,15,30.60
2019,06,18,14,16,30.60
2019,06,18,14,17,27.40
2019,06,18,14,18,32.20
2019,06,18,14,19,27.40
2019,06,18,14,20,32.20
2019,06,18,14,21,29.00
2019,06,18,14,22,22.50
2019,06,18,14,23,29.00
2019,06,18,14,24,29.00
2019,06,18,14,25,30.60
2019,06,18,14,26,32.20
2019,06,18,14,27,16.10
2019,06,18,14,28,25.70
2019,06,18,14,29,20.90
2019,06,18,14,30,29.00
2019,06,18,14,31,30.60
2019,06,18,14,32,27.40
2019,06,18,14,33,33.80
2019,06,18,14,34,19.30
2019,06,18,14,35,20.90
2019,06,18,14,36,32.20
2019,06,18,14,37,25.70
2019,06,18,14,38,19.30
2019,06,18,14,39,24.20
2019,06,18,14,40,29.00
2019,06,18,14,41,25.70
2019,06,18,14,42,27.40
2019,06,18,14,43,30.60
2019,06,18,14,44,24.20
2019,06,18,14,45,33.80
2019,06,18,14,46,24.20
2019,06,18,14,47,29.00
2019,06,18,14,48,19.30
2019,06,18,14,49,29.00
2019,06,18,14,50,30.60
2019,06,18,14,51,29.00
2019,06,18,14,52,33.80
2019,06,18,14,53,24.20
2019,06,18,14,54,32.20
2019,06,18,14,55,27.40
2019,06,18,14,56,29.00
2019,06,18,14,57,33.80
2019,06,18,14,58,25.70
2019,06,18,14,59,30.60
2019,06,18,15,00,35.40
2019,06,18,15,01,29.00
2019,06,18,15,02,22.50
2019,06,18,15,03,24.20
2019,06,18,15,04,29.00
2019,06,18,15,05,32.20
2019,06,18,15,06,33.80
2019,06,18,15,07,40.20
2019,06,18,15,08,37.00
2019,06,18,15,09,32.20
2019,06,18,15,10,27.40
2019,06,18,15,11,25.70
2019,06,18,15,12,33.80
2019,06,18,15,13,33.80
2019,06,18,15,14,22.50
2019,06,18,15,15,25.70
2019,06,18,15,16,30.60
2019,06,18,15,17,17.70
2019,06,18,15,18,25.70
2019,06,18,15,19,25.70
2019,06,18,15,20,35.40
2019,06,18,15,21,22.50
2019,06,18,15,22,25.70
2019,06,18,15,23,33.80
2019,06,18,15,24,38.60
2019,06,18,15,25,33.80
2019,06,18,15,26,24.20
2019,06,18,15,27,30.60
2019,06,18,15,28,27.40
2019,06,18,15,29,25.70
2019,06,18,15,30,35.40
2019,06,18,15,31,27.40
2019,06,18,15,32,30.60
2019,06,18,15,33,35.40
2019,06,18,15,34,29.00
2019,06,18,15,35,24.20
2019,06,18,15,36,16.10
2019,06,18,15,37,32.20
2019,06,18,15,38,37.00
2019,06,18,15,39,25.70
2019,06,18,15,40,33.80
2019,06,18,15,41,29.00
2019,06,18,15,42,29.00
2019,06,18,15,43,30.60
2019,06,18,15,44,25.70
2019,06,18,15,45,19.30
2019,06,18,15,46,30.60
2019,06,18,15,47,27.40
2019,06,18,15,48,25.70
2019,06,18,15,49,20.90
2019,06,18,15,50,30.60
2019,06,18,15,51,24.20
2019,06,18,15,52,20.90
2019,06,18,15,53,20.90
2019,06,18,15,54,25.70
2019,06,18,15,55,30.60
2019,06,18,15,56,32.20
2019,06,18,15,57,30.60
2019,06,18,15,58,32.20
2019,06,18,15,59,38.60
2019,06,18,16,00,32.20
2019,06,18,16,01,30.60
2019,06,18,16,02,27.40
2019,06,18,16,03,30.60
2019,06,18,16,04,29.00
2019,06,18,16,05,20.90
2019,06,18,16,06,30.60
2019,06,18,16,07,29.00
2019,06,18,16,08,19.30
2019,06,18,16,09,33.80
2019,06,18,16,10,27.40
2019,06,18,16,11,32.20
2019,06,18,16,12,35.40
2019,06,18,16,13,20.90
2019,06,18,16,14,24.20
2019,06,18,16,15,29.00
2019,06,18,16,16,22.50
2019,06,18,16,17,29.00
2019,06,18,16,18,29.00
2019,06,18,16,19,17.70
2019,06,18,16,20,30.60
2019,06,18,16,21,20.90
2019,06,18,16,22,29.00
2019,06,18,16,23,32.20
2019,06,18,16,24,27.40
2019,06,18,16,25,25.70
2019,06,18,16,26,22.50
2019,06,18,16,27,19.30
2019,06,18,16,28,30.60
2019,06,18,16,29,22.50
2019,06,18,16,30,17.70
2019,06,18,16,31,17.70
2019,06,18,16,32,27.40
2019,06,18,16,33,29.00
2019,06,18,16,34,25.70
2019,06,18,16,35,27.40
2019,06,18,16,36,32.20
2019,06,18,16,37,40.20
2019,06,18,16,38,33.80
2019,06,18,16,39,27.40
2019,06,18,16,40,19.30
2019,06,18,16,41,14.50
2019,06,18,16,42,17.70
2019,06,18,16,43,25.70
2019,06,18,16,44,24.20
2019,06,18,16,45,22.50
2019,06,18,16,46,25.70
2019,06,18,16,47,19.30
2019,06,18,16,48,25.70
2019,06,18,16,49,22.50
2019,06,18,16,50,30.60
2019,06,18,16,51,29.00
2019,06,18,16,52,37.00
2019,06,18,16,53,32.20
2019,06,18,16,54,32.20
2019,06,18,16,55,27.40
2019,06,18,16,56,25.70
2019,06,18,16,57,32.20
2019,06,18,16,58,33.80
2019,06,18,16,59,24.20
2019,06,18,17,00,38.60
2019,06,18,17,01,27.40
2019,06,18,17,02,16.10
2019,06,18,17,03,22.50
2019,06,18,17,04,29.00
2019,06,18,17,05,22.50
2019,06,18,17,06,19.30
2019,06,18,17,07,24.20
2019,06,18,17,08,29.00
2019,06,18,17,09,38.60
2019,06,18,17,10,32.20
2019,06,18,17,11,27.40
2019,06,18,17,12,29.00
2019,06,18,17,13,29.00
2019,06,18,17,14,29.00
2019,06,18,17,15,27.40
2019,06,18,17,16,22.50
2019,06,18,17,17,30.60
2019,06,18,17,18,32.20
2019,06,18,17,19,24.20
2019,06,18,17,20,35.40